sat.trackr.live / text

‹ back to catalog

DUBAISAT-1

NORAD 35682 · 2009-041B

PAYLOAD ACTIVE UNKNOWN

§ Identity

Operator
Country
UAE
Launch date
2009-07-29
Launch site
TYMSC
Launch vehicle
Mass (kg)
RCS (m²)
1.22

Purposes: earth_obs

External: N2YO · Heavens-Above · Gunter

§ Orbital elements

Epoch: 2026-09-20T04:26:22.494048Z

Period
97.61 min
Inclination
98.0184°
Eccentricity
0.0011498
Mean motion
14.75257123 rev/d
Perigee alt
636.3 km
Apogee alt
652.4 km
Semi-major
7,022.5 km
B*
8.9586e-5
RAAN
35.4809°
Arg perigee
122.3912°
Mean anomaly
237.8412°
Rev number
91,910

§ Raw data

DUBAISAT-11 35682U 09041B   26263.18498257  .00000556  00000+0  89586-4 0  99962 35682  98.0184  35.4809 0011498 122.3912 237.8412 14.75257123919102

JSON: /api/v1/satellites/35682 · /tle

For live sub-satellite position, see the globe view (requires WebGL).

§ Visibility from observer

Set your observer location to see the next 7 days of passes ≥ 10°. The values pass through the URL so the page stays shareable.

No JS? Fill the form by hand. The geolocation button needs JavaScript.